Total_Precipitation_Accumulation
2.93 3.02 2.79 2.73 2.62 2.73 2.88 2.87 2.63 2.73 2.84 2.76 2.49 2.31 2.20 1.96 1.83 1.78 1.90 2.18 2.17 2.15 2.40 2.41 2.34 2.23 1.98 1.72 1.59 1.51 1.44 1.32 1.16 0.95 0.86 0.77 0.68 0.56 0.43 0.37 0.34 0.32 0.32
2.75 2.68 2.76 2.85 2.67 2.65 2.61 2.61 2.65 2.87 2.99 3.01 2.71 2.46 2.35 2.18 2.01 1.98 2.00 2.28 2.34 2.19 2.34 2.69 2.85 2.77 2.62 2.29 2.05 1.91 1.80 1.65 1.38 1.05 0.95 0.89 0.77 0.67 0.60 0.57 0.51 0.42 0.37
2.70 2.71 2.73 2.62 2.55 2.55 2.64 2.69 2.74 2.86 2.77 2.82 2.76 2.58 2.52 2.36 2.23 2.11 2.07 2.13 1.98 2.14 2.36 2.60 2.84 2.89 2.94 2.80 2.67 2.50 2.24 1.90 1.56 1.21 0.97 0.92 0.84 0.71 0.67 0.67 0.66 0.58 0.49
2.46 2.58 2.43 2.38 2.40 2.23 2.29 2.48 2.47 2.51 2.61 2.73 2.71 2.48 2.43 2.47 2.30 2.21 2.09 2.03 2.15 1.90 2.23 2.55 2.71 2.67 2.85 3.13 3.37 3.35 2.83 2.20 1.74 1.40 1.16 1.03 0.95 0.79 0.68 0.65 0.65 0.64 0.53
1.99 2.10 2.09 2.16 2.09 2.06 2.13 1.96 2.27 2.38 2.51 2.57 2.35 2.30 2.17 2.34 2.33 2.12 2.10 1.91 2.10 2.10 2.13 2.21 2.44 2.41 2.65 3.20 3.76 3.90 3.58 2.88 2.22 1.84 1.63 1.47 1.38 1.19 0.94 0.79 0.71 0.66 0.58
1.87 1.89 1.88 1.96 1.86 1.96 2.14 2.23 2.37 2.30 2.21 2.26 1.93 2.00 2.02 1.83 1.91 1.94 1.86 1.87 1.88 1.63 1.75 2.00 2.34 2.05 2.38 2.89 3.35 3.65 3.82 3.61 3.03 2.52 2.24 2.16 2.08 1.74 1.27 1.03 0.89 0.80 0.70
1.80 1.93 1.74 1.92 1.80 1.85 1.93 1.99 2.07 2.03 1.97 2.02 2.17 2.13 1.82 1.60 1.57 1.53 1.60 1.81 1.70 1.66 1.80 2.13 2.29 2.23 1.99 2.06 2.28 2.78 3.49 3.81 3.64 3.15 2.75 2.49 2.42 2.12 1.58 1.28 1.08 0.99 0.94
1.58 1.54 1.74 1.77 1.73 1.89 1.93 1.89 1.96 1.91 1.75 1.79 2.03 2.27 1.96 1.78 1.48 1.14 1.26 1.28 1.36 1.62 1.74 1.79 1.92 2.18 2.05 2.19 1.82 1.99 2.76 3.42 3.88 3.78 3.35 2.85 2.53 2.24 1.90 1.62 1.33 1.16 1.10
1.32 1.40 1.48 1.57 1.72 1.68 1.79 1.87 1.78 1.80 1.82 1.77 1.80 2.11 2.09 1.90 1.64 1.22 1.06 1.11 1.26 1.45 1.49 1.69 1.74 1.84 1.83 2.17 2.33 2.08 2.12 2.45 3.33 3.99 3.98 3.38 2.72 2.24 2.02 1.89 1.77 1.55 1.37
1.25 1.23 1.30 1.39 1.53 1.48 1.69 1.55 1.61 1.80 1.85 1.72 1.67 1.60 1.66 1.73 1.84 1.60 1.25 1.08 1.17 1.26 1.32 1.36 1.54 1.81 1.95 2.09 2.23 2.07 1.76 1.79 2.44 3.27 3.79 3.73 3.20 2.61 2.25 2.18 2.36 2.30 1.94
1.40 1.26 1.31 1.38 1.44 1.39 1.44 1.46 1.75 1.75 1.67 1.61 1.57 1.58 1.58 1.57 1.56 1.61 1.48 1.28 1.19 1.01 1.03 1.15 1.42 1.63 1.75 1.96 2.26 2.03 1.75 1.60 1.74 2.23 2.79 3.15 3.22 2.90 2.55 2.42 2.73 2.96 2.75
1.48 1.36 1.35 1.38 1.33 1.30 1.31 1.34 1.58 1.61 1.63 1.66 1.62 1.50 1.57 1.54 1.49 1.61 1.43 1.25 1.13 0.82 0.79 0.91 1.11 1.28 1.44 1.68 1.81 1.83 1.80 1.78 1.73 1.80 1.93 2.22 2.55 2.65 2.64 2.73 3.03 3.27 3.38
1.21 1.25 1.28 1.34 1.19 1.20 1.32 1.50 1.55 1.52 1.58 1.60 1.51 1.42 1.39 1.26 1.34 1.43 1.34 1.14 1.11 0.90 0.96 0.87 0.93 1.16 1.31 1.65 1.79 1.80 1.65 1.71 1.56 1.48 1.49 1.58 1.73 2.02 2.32 2.57 2.89 3.21 3.52
1.17 1.22 1.23 1.19 1.18 1.22 1.26 1.54 1.46 1.43 1.47 1.43 1.32 1.51 1.44 1.19 1.32 1.36 1.42 1.57 1.42 1.25 1.24 1.02 1.01 1.28 1.61 1.73 1.92 1.91 1.54 1.53 1.37 1.26 1.19 1.24 1.34 1.51 1.64 1.83 2.10 2.32 2.57
1.28 1.33 1.30 1.26 1.26 1.38 1.52 1.65 1.53 1.52 1.56 1.40 1.39 1.58 1.51 1.36 1.37 1.33 1.46 1.68 1.79 1.57 1.41 1.34 1.33 1.35 1.54 1.64 1.80 1.69 1.52 1.59 1.43 1.27 1.18 1.14 1.17 1.25 1.32 1.36 1.45 1.55 1.68
1.34 1.39 1.37 1.31 1.38 1.46 1.59 1.67 1.55 1.60 1.57 1.47 1.50 1.64 1.62 1.51 1.52 1.47 1.50 1.66 1.88 1.85 1.61 1.37 1.41 1.38 1.44 1.34 1.52 1.42 1.44 1.59 1.44 1.33 1.28 1.23 1.18 1.19 1.20 1.25 1.29 1.27 1.28
1.41 1.38 1.37 1.37 1.37 1.44 1.53 1.60 1.51 1.54 1.50 1.50 1.50 1.55 1.56 1.68 1.71 1.68 1.78 1.82 1.91 2.03 1.83 1.49 1.53 1.64 1.62 1.46 1.43 1.39 1.37 1.38 1.33 1.36 1.30 1.27 1.20 1.14 1.07 1.02 1.07 1.11 1.09
1.34 1.38 1.42 1.37 1.28 1.35 1.49 1.51 1.44 1.50 1.53 1.49 1.57 1.72 1.65 1.70 1.77 1.85 1.99 1.91 1.97 2.22 2.17 1.88 1.83 1.90 1.76 1.66 1.62 1.54 1.35 1.27 1.26 1.39 1.30 1.22 1.13 1.06 1.01 0.96 0.94 0.93 0.94
1.44 1.40 1.35 1.28 1.27 1.31 1.37 1.40 1.49 1.61 1.65 1.68 1.76 1.84 1.87 2.03 1.94 1.98 2.03 1.99 2.05 2.28 2.47 2.27 2.09 2.17 2.10 1.88 1.80 1.62 1.49 1.49 1.29 1.32 1.34 1.24 1.16 1.11 1.05 1.04 1.02 0.97 0.90
1.53 1.53 1.50 1.52 1.53 1.48 1.46 1.52 1.63 1.71 1.73 1.79 1.93 1.96 1.97 2.03 2.08 2.19 2.20 2.27 2.43 2.61 2.75 2.61 2.48 2.55 2.55 2.37 2.15 1.82 1.70 1.60 1.47 1.34 1.41 1.34 1.29 1.24 1.14 1.06 1.02 1.00 0.98
1.75 1.87 1.84 1.81 1.85 1.79 1.62 1.72 1.79 1.77 1.88 1.82 1.90 1.95 1.91 2.00 2.06 2.16 2.13 2.31 2.60 2.78 2.91 2.92 2.86 3.00 2.94 2.79 2.44 2.08 1.97 1.86 1.71 1.50 1.43 1.34 1.31 1.23 1.19 1.17 1.11 1.07 1.04
2.00 2.06 1.99 1.98 1.97 1.75 1.86 1.92 1.89 1.95 2.01 1.97 1.97 1.99 1.96 1.93 1.86 1.90 1.98 2.09 2.26 2.46 2.68 2.87 2.94 3.01 3.04 2.93 2.72 2.46 2.13 1.87 1.71 1.57 1.59 1.49 1.38 1.30 1.18 1.10 1.20 1.16 1.09
1.93 1.99 2.01 2.03 1.92 1.87 1.88 1.75 1.76 1.77 1.88 1.95 1.97 1.98 1.81 1.69 1.71 1.63 1.77 1.83 1.82 1.88 2.01 2.28 2.49 2.53 2.74 2.86 2.77 2.42 2.10 1.85 1.66 1.62 1.66 1.56 1.46 1.36 1.24 1.21 1.28 1.15 1.10
2.19 2.19 2.12 2.09 2.06 1.93 1.84 1.70 1.74 1.62 1.67 1.71 1.75 1.78 1.77 1.68 1.66 1.74 1.74 1.62 1.48 1.47 1.58 1.60 1.71 1.96 2.23 2.56 2.65 2.52 2.45 2.16 1.86 1.64 1.59 1.55 1.40 1.30 1.22 1.18 1.28 1.18 1.09
2.35 2.32 2.29 2.31 2.32 2.31 2.22 1.93 1.82 1.67 1.71 1.70 1.70 1.70 1.70 1.57 1.66 1.62 1.57 1.57 1.48 1.40 1.43 1.47 1.53 1.73 2.00 2.24 2.45 2.48 2.37 2.27 2.00 1.68 1.55 1.50 1.38 1.35 1.30 1.19 1.17 1.19 1.11
2.26 2.26 2.21 2.26 2.24 2.27 2.34 2.03 1.80 1.60 1.64 1.68 1.76 1.77 1.79 1.63 1.68 1.63 1.59 1.63 1.54 1.46 1.46 1.44 1.47 1.53 1.60 1.89 2.18 2.19 2.15 2.17 2.01 1.77 1.50 1.49 1.40 1.39 1.38 1.15 0.98 0.95 0.96